Back to catalog

STARLINK-5673

AliveCommunicationsVLEO
NORAD 55462·PAYLOAD·🇺🇸 United States

Launched Feb 2, 2023 from Cape Canaveral Space Force Station

Loading…

Next Passes (next 24 hours)

TLE

FreshSource: CelesTrak SupGP

Epoch: Sep 14, 2026, 22:10 UTC

1 55462C 23015P   26257.92409722 -.00033126  00000+0 -11998-2 0  2573
2 55462  43.0019 339.8156 0001550 273.1700 151.9692 15.27596140    11

Track STARLINK-5673 in real time with AllMySat

Download on the App Store